Home   Weather   Champaign   Past weeks
Flag for USA

Past Weather in Champaign, Illinois, USA — Yesterday and Last 2 Weeks

Now
41 °F

Fog.


Feels Like: 33 °F
Forecast: 39 / 34 °F
Wind: 15 mph from Northeast

Location: University Of Illinois-Willard Airport

Current Time: Feb 24, 2020 at 9:59:51 pm

Latest Report: Feb 24, 2020 at 9:16 pm


Visibility: 2 mi

Pressure: 29.73 "Hg

Humidity: 96%

Dew Point: 40 °F

Location of ChampaignLocation

Past Weather in Champaign — Graph

°F

Champaign Temperature Yesterday

Maximum temperature yesterday: 56 °F (at 2:53 pm)
Minimum temperature yesterday: 29 °F (at 2:53 am)
Average temperature yesterday: 40 °F

High & Low Weather Summary for the Past Weeks

 TemperatureHumidityPressure
High56 °F (Feb 23, 2:53 pm)100% (Feb 9, 9:15 pm)30.74 "Hg (Feb 9, 9:15 pm)
Low-6 °F (Feb 14, 6:53 am)39% (Feb 22, 2:53 pm)29.71 "Hg (Feb 24, 3:33 pm)
Average29 °F83%30.19 "Hg
* Reported Feb 9 9:15 pm — Feb 24 8:53 pm, Champaign. Weather by CustomWeather, © 2020

Note: Actual official high and low records may vary slightly from our data, if they occured in-between our weather recording intervals... More about our weather records

Champaign Weather History for the Previous 24 Hours

Scroll right to see more
 ConditionsComfort  
Time TempWeatherWind HumidityBarometerVisibility
8:53 pm
Mon, Feb 24
41 °FFog.13 mph96%29.75 "Hg3 mi
8:07 pm41 °FLight rain. Fog.16 mph96%29.72 "Hg3 mi
6:53 pm42 °FLight rain. Fog.14 mph96%29.75 "Hg2 mi
5:53 pm42 °FFog.12 mph100%29.74 "Hg2 mi
5:24 pm42 °FLight rain. Fog.12 mph100%29.72 "Hg1 mi
5:04 pm42 °FLight rain. Fog.13 mph100%29.72 "Hg1 mi
4:31 pm43 °FFog.9 mph97%29.73 "Hg1 mi
4:22 pm43 °FFog.9 mph97%29.73 "Hg2 mi
3:53 pm43 °FMostly cloudy.10 mph97%29.73 "Hg8 mi
3:33 pm43 °FMostly cloudy.13 mph97%29.71 "Hg8 mi
2:53 pm43 °FOvercast.14 mph97%29.72 "Hg10 mi
1:53 pm45 °FLight rain. Fog.18 mph97%29.72 "Hg5 mi
12:53 pm44 °FLight rain. Mostly cloudy.15 mph96%29.78 "Hg8 mi
11:53 am43 °FLight rain. Fog.13 mph97%29.82 "Hg4 mi
10:53 am43 °FLow clouds.12 mph97%29.85 "Hg10 mi
10:25 am43 °FLow clouds.10 mph97%29.83 "Hg10 mi
9:53 am43 °FFog.13 mph100%29.85 "Hg5 mi
8:53 am40 °FFog.8 mph100%29.89 "Hg0 mi
8:20 am40 °FLight rain. Fog.5 mph100%29.90 "Hg0 mi
8:04 am40 °FLight rain. Fog.6 mph100%29.90 "Hg0 mi
6:53 am38 °FFog.5 mph100%29.92 "Hg0 mi
5:53 am39 °FFog.5 mph100%29.91 "Hg0 mi
5:00 am38 °FFog.8 mph100%29.89 "Hg0 mi
4:34 am39 °FFog.6 mph96%29.90 "Hg2 mi
3:53 am38 °FFog.7 mph97%29.90 "Hg6 mi
3:22 am38 °FPassing clouds.6 mph97%29.91 "Hg8 mi
3:14 am38 °FPassing clouds.8 mph93%29.92 "Hg9 mi
2:53 am38 °FClear.9 mph93%29.93 "Hg10 mi
1:53 am36 °FClear.5 mph92%29.95 "Hg10 mi
12:53 am38 °FClear.9 mph86%29.96 "Hg10 mi
11:53 pm
Sun, Feb 23
37 °FClear.8 mph86%29.97 "Hg10 mi
10:53 pm38 °FClear.9 mph86%29.98 "Hg10 mi
9:53 pm39 °FClear.10 mph86%29.99 "Hg10 mi
Weather by CustomWeather, © 2020

See weather overview

Advertising